Other Public Products
Issued by NWS Charleston, SC

Current Version | Previous Version | Graphics & Text | Print | Product List | Glossary On
Versions: 1 2 3 4 5 6 7 8 9 10 11 12 13 14 15 16 17 18 19 20 21 22 23 24 25 26 27 28 29 30 31 32 33 34 35 36 37 38 39 40 41 42 43 44 45 46 47 48 49 50
055 FPUS82 KCHS 241027 OPUCHS TEST...KCHS/KSAV Gateway Observations...TEST National Weather Service Charleston SC 600 AM EDT MON JUL 24 2017 NOTE: "fair" indicates few or no clouds below 12,000 feet with no significant weather and/or obstructions to visibility. SCZ050-WAZ558-NCZ071-TXZ119-213-PAZ071-DCZ001-FLZ074-172-MI076- NYZ176-178-MAZ016-IL014-TNZ027-NJZ106-GAZ044-MD014-241100- ...Gateway Observations for Charleston International... CITY SKY/WX TMP DP RH WIND PRES REMARKS Chas Airport MOCLDY 78 73 84 SW9 29.93R Seattle CLEAR 61 52 72 NE6 30.04S Charlotte CLOUDY 73 69 87 S10 29.90R Dallas DFW LGT RAIN 77 72 84 W9 29.90R Dallas Love LGT RAIN 74 72 93 E3 29.91R Philladelphia CLOUDY 72 70 93 E5 29.72F Wash National CLOUDY 78 72 81 W3 29.72S Baltimore MOCLDY 71 71 100 W3 29.72R Miami PTCLDY 83 75 77 CALM 30.03R HX 90 Detroit PTCLDY 66 63 90 N6 29.84R Newark LGT RAIN 70 67 90 E8 29.76F Laguardia LGT RAIN 69 68 96 NE12 29.76F FOG J F K RAIN 70 70 100 E14G23 29.77F FOG Boston Logan LGT RAIN 64 59 83 E9 29.93S Ft. Lauderdale PTCLDY 80 76 87 N5 30.02R Chicago O`Hare CLOUDY 67 60 78 N13 29.95R Chicago Midway CLOUDY 69 61 75 N15 29.94R Houston Bush CLOUDY 80 75 84 S5 29.93F Houston Hobby CLOUDY 81 75 82 S6 29.93F Nashville MOCLDY 71 68 90 CALM 29.93R Atlanta MOCLDY 76 73 91 W6 29.95R $$ GAZ044-118-TXZ119-213-NCZ071-DCZ001-MDZ014-506-PAZ021-071-NJZ106- NYZ176-178-MAZ106-OHZ011-021-055-MIZ076-KYZ091-ILZ014-INZ047- MNZ060-ONZ431-241100- ...Gateway Observations for Savannah International... CITY SKY/WX TMP DP RH WIND PRES REMARKS Savannah Arpt MOCLDY 78 74 87 SW9 29.97R Atlanta MOCLDY 76 73 91 W6 29.95R Charlotte CLOUDY 73 69 87 S10 29.90R Dallas DFW LGT RAIN 77 72 84 W9 29.90R Houston Bush CLOUDY 80 75 84 S5 29.93F Wash National CLOUDY 78 72 81 W3 29.72S Wash Dulles MOCLDY 73 71 93 NW3 29.74R Baltimore MOCLDY 71 71 100 W3 29.72R Philadelphia CLOUDY 72 70 93 E5 29.72F Newark LGT RAIN 70 67 90 E8 29.76F Laguardia LGT RAIN 69 68 96 NE12 29.76F FOG J F K RAIN 70 70 100 E14G23 29.77F FOG Boston LGT RAIN 64 59 83 E9 29.93S Pittsburg CLOUDY 67 67 100 W6 29.83R Akron PTCLDY 66 63 90 W5 29.83R Cleveland MOCLDY 69 65 86 W3 29.84R Cincinnati MOCLDY 70 70 100 SW5 29.88R Columbus MOCLDY 66 66 100 CALM 29.85R Detroit PTCLDY 66 63 90 N6 29.84R Chicago O`Hare CLOUDY 67 60 78 N13 29.95R Minneapolis CLEAR 61 55 81 N3 30.05R Indianapolis PTCLDY 68 64 87 N9 29.87R Toronto Canada MOCLDY 68 57 68 NW8 29.73R $$

USA.gov is the U.S. government's official web portal to all federal, state and local government web resources and services.